Simultaneous Nadir Overpasses (SNOs) Predictions

Prediction of SNOs between NPP and TERRA Satellite Orbit:

Table of predicted SNOs for the next 14.0 days since TLE Epoch: 4/14/2018
Index Date (NPP) Time (NPP) Lat,Lon (NPP) SZA (NPP ) Date (TERRA) Time (TERRA) Lat,Lon (TERRA) SZA (TERRA ) Distance(km) Time Diff (sec)
1 04/14/2018 11:29:49 68.33, 6.16 58.74 04/14/2018 11:30:35 68.33, 6.19 58.73 1.36 46
2 04/14/2018 12:20:30 -68.18, 173.66 121.43 04/14/2018 12:20:06 -68.17, 173.63 121.44 2.25 24
3 04/14/2018 13:10:56 67.09, -17.70 57.46 04/14/2018 13:09:49 67.16, -19.87 57.55 94.01 67
4 04/17/2018 02:56:18 -69.36, -46.78 121.16 04/17/2018 02:57:25 -69.27, -44.41 121.27 93.60 67
5 04/17/2018 03:46:44 68.28, 121.99 57.74 04/17/2018 03:47:08 68.27, 121.99 57.72 1.45 24
6 04/17/2018 04:37:25 -68.13, -70.51 122.43 04/17/2018 04:36:39 -68.11, -70.57 122.45 3.47 46
7 04/19/2018 19:12:59 -68.56, 70.08 122.91 04/19/2018 19:14:11 -68.49, 70.48 122.99 17.94 72
8 04/19/2018 20:03:39 68.24,-122.19 56.76 04/19/2018 20:03:41 68.21,-122.22 56.73 3.22 2
9 04/19/2018 20:54:20 -68.09, 45.32 123.42 04/19/2018 20:53:11 -68.11, 45.30 123.39 3.07 69
10 04/22/2018 11:29:49 -68.30,-173.81 124.08 04/22/2018 11:30:45 -68.32,-173.86 124.07 3.14 56
11 04/22/2018 12:20:33 68.19, -6.36 55.80 04/22/2018 12:20:12 68.21, -6.35 55.81 1.38 21
12 04/22/2018 13:11:03 -67.45, 161.88 124.97 04/22/2018 13:09:53 -67.49, 160.46 124.91 60.89 70
13 04/25/2018 03:46:45 -68.31, -58.05 124.96 04/25/2018 03:47:17 -68.32, -58.00 124.96 2.10 32
14 04/25/2018 04:37:28 68.15, 109.46 54.87 04/25/2018 04:36:45 68.14, 109.44 54.86 1.34 43
15 04/27/2018 19:13:04 68.70,-110.10 54.58 04/27/2018 19:14:15 68.63,-109.38 54.51 29.99 71
16 04/27/2018 20:03:40 -68.26, 57.78 125.87 04/27/2018 20:03:50 -68.25, 57.79 125.88 1.49 10
17 04/27/2018 20:54:23 68.11,-134.71 53.97 04/27/2018 20:53:17 68.13,-134.70 53.99 2.83 66




NCC Satellite Simultaneous Nadir Overpasses (SNOs) Prediction Service
